Location: Newark
(44.7667°N, 12.1333°E)
Time: 19:28:04
(UTC+00:00)

Envisat - Visible Passes

Search period start: 21 November 2019 00:00
Search period end: 01 December 2019 00:00
Orbit: 764 x 766 km, 98.1° (Epoch: 21 November)

Date Brightness Start Highest point End Pass type
(mag) Time Alt. Az. Time Alt. Az. Time Alt. Az.
21 Nov 6.0 04:48:54 10° NE 04:51:56 16° E 04:54:58 10° SE visible
21 Nov 3.9 16:04:52 10° ESE 16:09:00 26° ENE 16:13:09 10° N visible
21 Nov 4.2 17:42:59 10° S 17:47:48 43° W 17:52:39 10° NNW visible
22 Nov 2.9 17:05:52 10° SSE 17:10:57 88° ENE 17:16:04 10° NNW visible
22 Nov 6.1 18:48:55 10° WSW 18:50:40 12° W 18:52:25 10° WNW visible
23 Nov 5.4 05:13:25 10° NE 05:17:43 27° E 05:21:58 10° SSE visible
23 Nov 3.3 16:29:33 10° SE 16:34:19 42° ENE 16:39:05 10° N visible
23 Nov 5.2 18:09:18 10° SSW 18:13:29 25° W 18:17:41 10° NW visible
24 Nov 6.2 04:38:27 10° ENE 04:40:31 12° E 04:42:36 10° ESE visible
24 Nov 3.7 17:31:31 10° S 17:36:29 54° W 17:41:29 10° NNW visible
25 Nov 4.3 05:38:28 10° NNE 05:43:22 45° E 05:48:13 10° S visible
25 Nov 2.9 16:54:39 10° SSE 16:59:42 71° ENE 17:04:46 10° N visible
25 Nov 5.9 18:36:24 10° WSW 18:39:14 15° W 18:42:07 10° NW visible
26 Nov 5.7 05:02:28 10° NE 05:06:20 22° E 05:10:11 10° SE visible
26 Nov 3.6 16:18:33 10° SE 16:23:06 34° ENE 16:27:40 10° N visible
26 Nov 4.8 17:57:36 10° SSW 18:02:07 32° W 18:06:38 10° NNW visible
27 Nov 3.3 17:20:08 10° S 17:25:11 68° WSW 17:30:16 10° NNW visible
28 Nov 4.8 05:27:20 10° NNE 05:32:02 36° E 05:36:41 10° SSE visible
28 Nov 3.0 16:43:29 10° SSE 16:48:27 57° ENE 16:53:27 10° N visible
28 Nov 5.6 18:24:19 10° SW 18:27:50 19° W 18:31:23 10° NW visible
29 Nov 6.0 04:51:37 10° NE 04:54:57 17° E 04:58:14 10° SE visible
29 Nov 3.8 16:07:38 10° ESE 16:11:55 28° ENE 16:16:11 10° N visible
29 Nov 4.3 17:46:02 10° SSW 17:50:46 39° W 17:55:33 10° NNW visible
30 Nov 3.0 17:08:49 10° SSE 17:13:54 85° WSW 17:19:01 10° NNW visible
30 Nov 6.2 18:52:42 10° W 18:53:40 10° W 18:54:39 10° WNW visible
